EW0150 Weather Reports


time (UTC)temp
C
wind
direction
speed
KPH
gust
KPH
rain 1hr
cm
rain 24hr
cm
rain mn
cm
humidity
%
barometer
mb
20260504233009 12 165 1.6 3.2 0.00 0.00 0.00 56 1012.2
20260504231006 11 165 1.6 3.2 0.00 0.00 0.00 56 1012.4
20260504230008 12 165 0.0 3.2 0.00 0.00 0.00 53 1012.4
20260504225006 12 165 0.0 0.0 0.00 0.00 0.00 53 1012.5
20260504224007 12 165 0.0 1.6 0.00 0.00 0.00 51 1012.6
20260504223005 12 165 0.0 0.0 0.00 0.00 0.00 51 1012.6
20260504222006 13 165 1.6 4.8 0.00 0.00 0.00 47 1012.6
20260504221004 14 165 6.4 8.0 0.00 0.00 0.00 44 1012.6
20260504220010 15 165 6.4 9.7 0.00 0.00 0.00 43 1012.6
20260504214005 15 160 6.4 8.0 0.00 0.00 0.00 44 1012.7
20260504212005 16 160 3.2 6.4 0.00 0.00 0.00 41 1012.7
20260504211005 16 207 4.8 8.0 0.00 0.00 0.00 42 1012.7
20260504210011 16 192 4.8 6.4 0.00 0.00 0.00 40 1012.8
20260504205008 17 202 4.8 9.7 0.00 0.00 0.00 39 1012.8
20260504202005 17 197 4.8 8.0 0.00 0.00 0.00 40 1012.8
20260504200007 16 205 6.4 11.3 0.00 0.00 0.00 45 1012.7
20260504195005 16 210 6.4 9.7 0.00 0.00 0.00 49 1012.7
20260504194005 16 178 6.4 9.7 0.00 0.00 0.00 48 1012.7
20260504192004 17 180 6.4 9.7 0.00 0.00 0.00 48 1012.7
20260504191007 17 186 6.4 8.0 0.00 0.00 0.00 48 1012.6
20260504190011 17 169 4.8 6.4 0.00 0.00 0.00 49 1012.7
20260504185007 18 169 6.4 6.4 0.00 0.00 0.00 46 1012.5
20260504184005 18 169 6.4 8.0 0.00 0.00 0.00 47 1012.4
20260504182005 18 217 1.6 3.2 0.00 0.00 0.00 47 1012.3
20260504181005 19 217 1.6 3.2 0.00 0.00 0.00 45 1012.2
20260504180010 20 217 3.2 6.4 0.00 0.00 0.00 42 1012.1
20260504174007 22 248 3.2 6.4 0.00 0.00 0.00 39 1012.1
20260504173005 22 246 6.4 14.5 0.00 0.00 0.00 37 1012.1
20260504172004 22 210 6.4 11.3 0.00 0.00 0.00 37 1012.1
20260504171005 23 209 6.4 12.9 0.00 0.00 0.00 37 1012.0
20260504151006 25 196 14.5 27.4 0.00 0.00 0.00 36 1012.4
20260504141004 25 172 16.1 32.2 0.00 0.00 0.00 34 1012.5
20260504082005 21 207 14.5 25.7 0.00 0.00 0.00 37 1015.4
20260504050008 12 186 11.3 19.3 0.00 0.00 0.00 58 1015.4
20260504045005 11 165 8.0 12.9 0.00 0.00 0.00 61 1015.5
20260504044004 11 163 6.4 8.0 0.00 0.00 0.00 63 1015.6
20260504043005 10 170 4.8 6.4 0.00 0.00 0.00 64 1015.6
20260504042005 10 170 4.8 8.0 0.00 0.00 0.00 63 1015.5
20260504035004 8 183 3.2 6.4 0.00 0.00 0.00 69 1015.4
20260504034005 7 201 3.2 4.8 0.00 0.00 0.00 71 1015.3
20260504033004 7 201 4.8 8.0 0.00 0.00 0.00 72 1015.3
20260504031007 7 234 3.2 6.4 0.00 0.00 0.00 69 1015.3
20260504030008 6 150 1.6 4.8 0.00 0.00 0.00 71 1015.3
20260504023006 8 150 4.8 8.0 0.00 0.00 0.00 64 1014.9
20260504022006 8 160 4.8 8.0 0.00 0.00 0.00 64 1015.0
20260504021007 8 160 3.2 6.4 0.00 0.00 0.00 65 1015.0
20260504020012 8 160 3.2 3.2 0.00 0.00 0.00 65 1015.0
20260504015010 8 160 3.2 3.2 0.00 0.00 0.00 66 1015.0
20260504014009 8 160 4.8 8.0 0.00 0.00 0.00 66 1014.9
20260504013007 9 160 3.2 4.8 0.00 0.00 0.00 63 1014.9
20260504012006 10 160 6.4 8.0 0.00 0.00 0.00 58 1015.0
20260504011007 11 160 4.8 8.0 0.00 0.00 0.00 57 1015.0
20260504010009 10 160 4.8 6.4 0.00 0.00 0.00 59 1015.0
20260504005006 10 160 3.2 4.8 0.00 0.00 0.00 60 1015.0
20260504003007 10 160 1.6 3.2 0.00 0.00 0.00 61 1015.0
20260504001010 9 160 1.6 3.2 0.00 0.00 0.00 61 1015.1
20260504000011 10 160 1.6 3.2 0.00 0.00 0.00 60 1015.2
20260503235009 10 160 1.6 3.2 0.00 0.00 0.00 59 1015.2
20260503234006 11 160 3.2 8.0 0.00 0.00 0.00 57 1015.2